Gainesville, GA

10:50 AM EST on February 22, 2018 (GMT -0500)
Gilmer Memorial

Weather History for KGVL - November, 2014

Change the Weather History Date:

Thursday, November 27, 2014

  Actual Average Record
Temperature  
Mean Temperature 41 °F 49 °F  
Max Temperature 48 °F 58 °F 77 °F (1973)
Min Temperature 33 °F 40 °F 21 °F (1930)
Degree Days  
Heating Degree Days 24 16  
Month to date heating degree days 463 327  
Since 1 July heating degree days 586 485  
Moisture  
Dew Point 26 °F    
Average Humidity 58    
Maximum Humidity 70    
Minimum Humidity 45    
Precipitation  
Precipitation 0.00 in 0.21 in 2.63 in (1993)
Month to date precipitation 4.44 3.84  
Year to date precipitation 41.67 48.85  
Snow  
Snow 0.00 in - - ()
Month to date snowfall 0.0  
Since 1 July snowfall 0.0  
Since 1 September snowfall 0.0  
Snow Depth -    
Sea Level Pressure  
Sea Level Pressure 30.22 in    
Wind  
Wind Speed 12 mph (WNW)    
Max Wind Speed 24 mph    
Max Gust Speed 34 mph    
Visibility 10 miles    
Events      
T = Trace of Precipitation, MM = Missing Value Source: NWS Daily Summary

Daily Weather History Graph

Daily Weather History Graph

Search for Another Location

Airport or City:

Trip Planner

Search our weather history database for the weather conditions in past years. The results will help you decide how hot, cold, wet, or windy it might be!

Date:

Astronomy

Nov. 27, 2014 Rise Set
Actual Time 7:19 AM EST 5:26 PM EST
Civil Twilight 6:52 AM EST 5:53 PM EST
Nautical Twilight 6:21 AM EST 6:24 PM EST
Astronomical Twilight 5:51 AM EST 6:54 PM EST
Moon 11:39 AM EST (11/27) 10:58 PM EST (11/27)
Length of Visible Light 11h 01m
Length of Day
10h 06m
Waxing Crescent, 31% of the Moon is Illuminated
Nov 27
Waxing Crescent
Nov 29
First Quarter
Dec 6
Full
Dec 14
Last Quarter
Dec 21
New

Hourly Weather History & Observations

Time (EST) Temp. Windchill Dew Point Humidity Pressure Visibility Wind Dir Wind Speed Gust Speed Precip Events Conditions
12:53 AM 46.9 °F - 27.0 °F 46% 30.01 in 10.0 mi SW 12.7 mph 18.4 mph N/A   Mostly Cloudy
1:53 AM 46.0 °F 38.3 °F 28.0 °F 50% 30.02 in 10.0 mi West 20.7 mph 32.2 mph N/A   Clear
2:53 AM 43.0 °F 36.4 °F 26.1 °F 51% 30.04 in 10.0 mi WNW 12.7 mph 23.0 mph N/A   Clear
3:53 AM 42.1 °F 36.6 °F 26.1 °F 53% 30.07 in 10.0 mi West 9.2 mph - N/A   Scattered Clouds
4:53 AM 39.9 °F 32.1 °F 27.0 °F 60% 30.09 in 10.0 mi West 13.8 mph 23.0 mph N/A   Scattered Clouds
5:53 AM 39.0 °F 31.8 °F 28.0 °F 65% 30.10 in 10.0 mi West 11.5 mph - N/A   Partly Cloudy
6:53 AM 39.0 °F 32.3 °F 28.9 °F 67% 30.14 in 10.0 mi West 10.4 mph - N/A   Mostly Cloudy
7:53 AM 39.0 °F 31.4 °F 28.9 °F 67% 30.15 in 10.0 mi West 12.7 mph - N/A   Overcast
8:53 AM 39.9 °F 31.8 °F 30.0 °F 68% 30.18 in 10.0 mi West 15.0 mph - N/A   Overcast
9:53 AM 43.0 °F 36.0 °F 30.0 °F 60% 30.20 in 10.0 mi WNW 13.8 mph 19.6 mph N/A   Mostly Cloudy
10:53 AM 43.0 °F 36.8 °F 28.0 °F 56% 30.23 in 10.0 mi NW 11.5 mph - N/A   Overcast
11:53 AM 45.0 °F 38.2 °F 26.1 °F 48% 30.25 in 10.0 mi NW 15.0 mph 25.3 mph N/A   Scattered Clouds
12:53 PM 44.1 °F 37.1 °F 25.0 °F 47% 30.25 in 10.0 mi NW 15.0 mph - N/A   Mostly Cloudy
1:53 PM 44.1 °F 37.4 °F 25.0 °F 47% 30.25 in 10.0 mi NW 13.8 mph 26.5 mph N/A   Overcast
2:53 PM 42.1 °F 34.2 °F 24.1 °F 49% 30.27 in 10.0 mi NNW 16.1 mph - N/A   Mostly Cloudy
3:53 PM 43.0 °F 37.7 °F 25.0 °F 49% 30.27 in 10.0 mi NNW 9.2 mph - N/A   Overcast
4:53 PM 39.9 °F 33.9 °F 25.0 °F 55% 30.30 in 10.0 mi NW 9.2 mph 21.9 mph N/A   Scattered Clouds
5:53 PM 39.0 °F 32.8 °F 24.1 °F 55% 30.31 in 10.0 mi WNW 9.2 mph - N/A   Scattered Clouds
6:53 PM 37.9 °F 29.6 °F 26.1 °F 62% 30.33 in 10.0 mi WNW 13.8 mph - N/A   Overcast
7:53 PM 37.9 °F 30.0 °F 25.0 °F 60% 30.34 in 10.0 mi NW 12.7 mph - N/A   Overcast
8:53 PM 37.0 °F 31.0 °F 25.0 °F 62% 30.34 in 10.0 mi NW 8.1 mph - N/A   Mostly Cloudy
9:53 PM 36.0 °F 28.5 °F 23.0 °F 59% 30.34 in 10.0 mi NW 10.4 mph - N/A   Clear
10:53 PM 34.0 °F 26.0 °F 21.9 °F 61% 30.36 in 10.0 mi WNW 10.4 mph - N/A   Clear
11:53 PM 33.1 °F 25.5 °F 21.9 °F 64% 30.36 in 10.0 mi WNW 9.2 mph - N/A   Clear